"Pseudo-MPEC" for P10Sze1

Created 2019 Oct 16 18:07:13 UT using Find_Orb

Click here for an explanation of pseudo-MPECs

 
 Astrometry: 
     P10Sze1  C2019 10 08=WJXVJ+5u8BXY1Ex8C%+xWll`'A(L/jCAnVwa39AstrometryTUqF51
     P10Sze1  C2019 10 083Aq13nj?Gembl4D?w5)rpZ];4lgredacted;!3^fG,W@S3click+F51
     P10Sze1  C2019 10 08FuQ4heresJf.g*l_Tns7c-^PbqhOru`8for(sw)H)qAS]*@BPvDyF51
     P10Sze1  C2019 10 08h-aL8#w,pUlb8?:ugCl/v*mqLCQAPD(kp@IHGUVHexplanationZF51

Station data:
(F51) Pan-STARRS 1, Haleakala  (N20.707235 W156.255910)  US/Hawaii.
   Observers N. Primak, A. Schultz, S. Watters, J. Thiel, T. Goggia. Measurer
   PS1 Science Consortium. 1.8-m Ritchey-Chrétien + CCD.

Orbital elements:  P10Sze1
   Perihelion 2019 Sep 13.168772 +/- 37.9 TT =  4:03:01 (JD 2458739.668772)
Epoch 2019 Oct  9.0 TT = JDT 2458765.5   Earth MOID: 0.0692   AutoNEOCP
M  17.36587915 +/- 18               (J2000 ecliptic)
n   0.67228237 +/- 0.351            Peri.  137.84977 +/- 80
a   1.29053038 +/- 0.449            Node   211.42461 +/- 60
e   0.1851476 +/- 0.254             Incl.    5.14012 +/- 6
P   1.47/535.48d           H 25.6   G  0.15   U 12.0  SR
q 1.05159176 +/- 0.19    Q 1.52946900 +/- 40.3
From 4 observations 2019 Oct. 8 (49.9 min); mean residual 0".08
Residuals in arcseconds: 
191008 F51  .04-  .03+    191008 F51  .10-  .12+    
191008 F51  .11+  .11-    191008 F51  .03+  .05-    

Ephemerides (geocentric):
Date (UTC) HH   RA              Dec         delta   r     elong  mag " sig PA
---- -- -- --  -------------   -----------  ------ ------ -----  --- ---- ---
2019 10 16 18  00 35 24.543   +15 30 59.54  .08386 1.0785 166.3 21.2  41d  21
2019 10 16 19  00 35 34.884   +15 28 33.71  .08393 1.0786 166.3 21.2  41d  21
2019 10 16 20  00 35 45.209   +15 26 08.06  .08400 1.0787 166.4 21.2  42d  21
2019 10 16 21  00 35 55.516   +15 23 42.58  .08406 1.0787 166.4 21.2  42d  21
2019 10 16 22  00 36 05.805   +15 21 17.28  .08413 1.0788 166.4 21.2  42d  21
2019 10 16 23  00 36 16.078   +15 18 52.16  .08420 1.0788 166.5 21.2  42d  21
2019 10 17 00  00 36 26.333   +15 16 27.22  .08427 1.0789 166.5 21.2  42d  21
2019 10 17 01  00 36 36.571   +15 14 02.46  .08434 1.0790 166.5 21.2  42d  21
2019 10 17 02  00 36 46.792   +15 11 37.88  .08441 1.0790 166.5 21.2  42d  21
2019 10 17 03  00 36 56.996   +15 09 13.48  .08448 1.0791 166.6 21.2  42d  21
2019 10 17 04  00 37 07.182   +15 06 49.26  .08455 1.0792 166.6 21.2  42d  20
2019 10 17 05  00 37 17.352   +15 04 25.22  .08462 1.0792 166.6 21.2  42d  20
2019 10 17 06  00 37 27.504   +15 02 01.36  .08469 1.0793 166.7 21.2  42d  20
2019 10 17 07  00 37 37.640   +14 59 37.69  .08476 1.0794 166.7 21.2  42d  20
2019 10 17 08  00 37 47.758   +14 57 14.20  .08483 1.0794 166.7 21.2  42d  20
2019 10 17 09  00 37 57.860   +14 54 50.89  .08490 1.0795 166.7 21.2  43d  20
2019 10 17 10  00 38 07.944   +14 52 27.76  .08497 1.0796 166.8 21.2  43d  20
2019 10 17 11  00 38 18.011   +14 50 04.82  .08504 1.0796 166.8 21.2  43d  20
2019 10 17 12  00 38 28.062   +14 47 42.06  .08511 1.0797 166.8 21.2  43d  20
2019 10 17 13  00 38 38.096   +14 45 19.49  .08518 1.0798 166.8 21.2  43d  20
2019 10 17 14  00 38 48.112   +14 42 57.10  .08525 1.0798 166.9 21.2  43d  20
2019 10 17 15  00 38 58.112   +14 40 34.90  .08532 1.0799 166.9 21.2  43d  20
2019 10 17 16  00 39 08.095   +14 38 12.88  .08539 1.0800 166.9 21.2  43d  20
2019 10 17 17  00 39 18.062   +14 35 51.05  .08547 1.0800 166.9 21.2  43d  20
2019 10 17 18  00 39 28.011   +14 33 29.40  .08554 1.0801 167.0 21.2  43d  20
2019 10 17 19  00 39 37.944   +14 31 07.95  .08561 1.0802 167.0 21.2  43d  20
2019 10 17 20  00 39 47.860   +14 28 46.68  .08568 1.0802 167.0 21.2  43d  20
2019 10 17 21  00 39 57.759   +14 26 25.59  .08575 1.0803 167.0 21.2  43d  20
2019 10 17 22  00 40 07.641   +14 24 04.70  .08583 1.0804 167.1 21.2  43d  20
2019 10 17 23  00 40 17.507   +14 21 43.99  .08590 1.0804 167.1 21.2  43d  20
2019 10 18 00  00 40 27.356   +14 19 23.47  .08597 1.0805 167.1 21.2  43d  20
2019 10 18 01  00 40 37.189   +14 17 03.14  .08604 1.0806 167.1 21.2  43d  20
2019 10 18 02  00 40 47.005   +14 14 43.00  .08612 1.0806 167.1 21.2  43d  20
2019 10 18 03  00 40 56.804   +14 12 23.05  .08619 1.0807 167.2 21.2  44d  20
2019 10 18 04  00 41 06.587   +14 10 03.29  .08626 1.0808 167.2 21.2  44d  20
2019 10 18 05  00 41 16.354   +14 07 43.72  .08634 1.0808 167.2 21.2  44d  20
2019 10 18 06  00 41 26.103   +14 05 24.34  .08641 1.0809 167.2 21.2  44d  20
2019 10 18 07  00 41 35.837   +14 03 05.16  .08648 1.0810 167.3 21.2  44d  20
2019 10 18 08  00 41 45.554   +14 00 46.16  .08656 1.0810 167.3 21.2  44d  20
2019 10 18 09  00 41 55.254   +13 58 27.35  .08663 1.0811 167.3 21.2  44d  20
2019 10 18 10  00 42 04.938   +13 56 08.74  .08671 1.0812 167.3 21.2  44d  20
2019 10 18 11  00 42 14.606   +13 53 50.32  .08678 1.0812 167.3 21.2  44d  20
2019 10 18 12  00 42 24.257   +13 51 32.09  .08686 1.0813 167.4 21.2  44d  20
2019 10 18 13  00 42 33.892   +13 49 14.06  .08693 1.0814 167.4 21.2  44d  20
2019 10 18 14  00 42 43.511   +13 46 56.22  .08700 1.0814 167.4 21.2  44d  20
2019 10 18 15  00 42 53.113   +13 44 38.57  .08708 1.0815 167.4 21.2  44d  20
2019 10 18 16  00 43 02.699   +13 42 21.11  .08715 1.0816 167.4 21.2  44d  20
2019 10 18 17  00 43 12.269   +13 40 03.85  .08723 1.0816 167.4 21.2  44d  20